sat.trackr.live / text

‹ back to catalog

STARLINK-3392

NORAD 51123 · 2022-005V

PAYLOAD ACTIVE UNKNOWN

§ Identity

Operator
Country
US
Launch date
2022-01-19
Launch site
AFETR
Launch vehicle
Mass (kg)
RCS (m²)

Purposes: comms

External: N2YO · Heavens-Above · Gunter

§ Orbital elements

Epoch: 2026-09-20T00:30:29.645280Z

Period
93.85 min
Inclination
53.1602°
Eccentricity
0.0001213
Mean motion
15.34385724 rev/d
Perigee alt
461.9 km
Apogee alt
463.6 km
Semi-major
6,840.9 km
B*
2.7531e-5
RAAN
127.8933°
Arg perigee
84.1280°
Mean anomaly
275.9861°
Rev number
25,833

§ Raw data

STARLINK-33921 51123U 22005V   26263.02117645  .00000554  00000+0  27531-4 0  99912 51123  53.1602 127.8933 0001213  84.1280 275.9861 15.34385724258335

JSON: /api/v1/satellites/51123 · /tle

For live sub-satellite position, see the globe view (requires WebGL).

§ Visibility from observer

Set your observer location to see the next 7 days of passes ≥ 10°. The values pass through the URL so the page stays shareable.

No JS? Fill the form by hand. The geolocation button needs JavaScript.